Location: Dumpton Point
(51.3500°N, 1.4433°E)
Time: 10:43:40
(UTC+00:00)

Transit 2A Rocket - Visible Passes

Search period start: 27 September 2022 00:00
Search period end: 07 October 2022 00:00
Orbit: 593 x 908 km, 66.7° (Epoch: 26 September)

Date Brightness Start Highest point End Pass type
(mag) Time Alt. Az. Time Alt. Az. Time Alt. Az.
01 Oct 7.4 05:13:40 10° SSE 05:16:34 18° ESE 05:19:30 10° ENE visible
04 Oct 6.8 04:46:41 10° SSE 04:50:11 24° ESE 04:53:43 10° ENE visible
05 Oct 7.4 04:05:16 10° SE 04:07:36 14° ESE 04:09:57 10° ENE visible
06 Oct 5.1 05:02:22 10° SSW 05:06:35 58° ESE 05:10:54 10° NE visible
